Year,Month,Day,Hour,Minute,Value (Times are PST for windspeed in km/hr)
2010,04,02,00,00,11.10
2010,04,02,00,01,9.60
2010,04,02,00,02,7.00
2010,04,02,00,03,13.30
2010,04,02,00,04,18.40
2010,04,02,00,05,12.30
2010,04,02,00,06,11.10
2010,04,02,00,07,12.60
2010,04,02,00,08,9.50
2010,04,02,00,09,11.90
2010,04,02,00,10,13.20
2010,04,02,00,11,12.60
2010,04,02,00,12,8.70
2010,04,02,00,13,8.00
2010,04,02,00,14,7.50
2010,04,02,00,15,6.20
2010,04,02,00,16,10.00
2010,04,02,00,17,7.20
2010,04,02,00,18,15.00
2010,04,02,00,19,13.20
2010,04,02,00,20,13.80
2010,04,02,00,21,12.30
2010,04,02,00,22,14.80
2010,04,02,00,23,11.90
2010,04,02,00,24,8.90
2010,04,02,00,25,8.70
2010,04,02,00,26,7.20
2010,04,02,00,27,12.30
2010,04,02,00,28,13.60
2010,04,02,00,29,12.10
2010,04,02,00,30,12.00
2010,04,02,00,31,9.80
2010,04,02,00,32,9.90
2010,04,02,00,33,14.20
2010,04,02,00,34,13.40
2010,04,02,00,35,17.10
2010,04,02,00,36,17.90
2010,04,02,00,37,17.00
2010,04,02,00,38,16.70
2010,04,02,00,39,12.60
2010,04,02,00,40,14.00
2010,04,02,00,41,10.90
2010,04,02,00,42,16.60
2010,04,02,00,43,10.90
2010,04,02,00,44,14.10
2010,04,02,00,45,14.30
2010,04,02,00,46,12.30
2010,04,02,00,47,10.80
2010,04,02,00,48,16.30
2010,04,02,00,49,12.30
2010,04,02,00,50,14.20
2010,04,02,00,51,11.40
2010,04,02,00,52,9.70
2010,04,02,00,53,12.50
2010,04,02,00,54,6.30
2010,04,02,00,55,15.80
2010,04,02,00,56,6.50
2010,04,02,00,57,11.10
2010,04,02,00,58,17.10
2010,04,02,00,59,11.80
2010,04,02,01,00,11.20
2010,04,02,01,01,13.70
2010,04,02,01,02,11.60
2010,04,02,01,03,13.30
2010,04,02,01,04,12.50
2010,04,02,01,05,15.20
2010,04,02,01,06,13.60
2010,04,02,01,07,15.90
2010,04,02,01,08,12.70
2010,04,02,01,09,7.20
2010,04,02,01,10,8.40
2010,04,02,01,11,9.30
2010,04,02,01,12,8.90
2010,04,02,01,13,12.30
2010,04,02,01,14,10.70
2010,04,02,01,15,13.40
2010,04,02,01,16,15.80
2010,04,02,01,17,11.30
2010,04,02,01,18,7.10
2010,04,02,01,19,10.80
2010,04,02,01,20,15.70
2010,04,02,01,21,12.20
2010,04,02,01,22,12.30
2010,04,02,01,23,9.80
2010,04,02,01,24,13.80
2010,04,02,01,25,15.10
2010,04,02,01,26,17.90
2010,04,02,01,27,13.90
2010,04,02,01,28,19.20
2010,04,02,01,29,17.50
2010,04,02,01,30,12.00
2010,04,02,01,31,19.90
2010,04,02,01,32,16.10
2010,04,02,01,33,11.90
2010,04,02,01,34,15.90
2010,04,02,01,35,12.70
2010,04,02,01,36,12.10
2010,04,02,01,37,16.90
2010,04,02,01,38,14.40
2010,04,02,01,39,13.80
2010,04,02,01,40,12.70
2010,04,02,01,41,9.60
2010,04,02,01,42,14.90
2010,04,02,01,43,11.40
2010,04,02,01,44,17.80
2010,04,02,01,45,15.10
2010,04,02,01,46,14.80
2010,04,02,01,47,13.90
2010,04,02,01,48,14.10
2010,04,02,01,49,11.10
2010,04,02,01,50,19.80
2010,04,02,01,51,12.20
2010,04,02,01,52,18.10
2010,04,02,01,53,10.30
2010,04,02,01,54,14.30
2010,04,02,01,55,12.40
2010,04,02,01,56,8.70
2010,04,02,01,57,12.00
2010,04,02,01,58,16.60
2010,04,02,01,59,12.10
2010,04,02,02,00,15.50
2010,04,02,02,01,21.30
2010,04,02,02,02,14.50
2010,04,02,02,03,11.50
2010,04,02,02,04,17.10
2010,04,02,02,05,12.60
2010,04,02,02,06,9.80
2010,04,02,02,07,11.00
2010,04,02,02,08,14.80
2010,04,02,02,09,5.50
2010,04,02,02,10,9.70
2010,04,02,02,11,11.00
2010,04,02,02,12,14.70
2010,04,02,02,13,14.60
2010,04,02,02,14,14.40
2010,04,02,02,15,18.00
2010,04,02,02,16,14.00
2010,04,02,02,17,12.80
2010,04,02,02,18,17.50
2010,04,02,02,19,10.20
2010,04,02,02,20,13.20
2010,04,02,02,21,15.30
2010,04,02,02,22,12.60
2010,04,02,02,23,15.90
2010,04,02,02,24,16.30
2010,04,02,02,25,11.00
2010,04,02,02,26,18.50
2010,04,02,02,27,17.80
2010,04,02,02,28,14.50
2010,04,02,02,29,10.40
2010,04,02,02,30,11.10
2010,04,02,02,31,17.40
2010,04,02,02,32,16.10
2010,04,02,02,33,13.10
2010,04,02,02,34,16.60
2010,04,02,02,35,13.50
2010,04,02,02,36,11.80
2010,04,02,02,37,12.00
2010,04,02,02,38,13.40
2010,04,02,02,39,11.30
2010,04,02,02,40,19.50
2010,04,02,02,41,14.00
2010,04,02,02,42,12.50
2010,04,02,02,43,15.40
2010,04,02,02,44,13.90
2010,04,02,02,45,9.30
2010,04,02,02,46,16.10
2010,04,02,02,47,15.60
2010,04,02,02,48,9.50
2010,04,02,02,49,15.70
2010,04,02,02,50,15.10
2010,04,02,02,51,15.10
2010,04,02,02,52,19.10
2010,04,02,02,53,14.80
2010,04,02,02,54,11.00
2010,04,02,02,55,13.80
2010,04,02,02,56,11.70
2010,04,02,02,57,10.50
2010,04,02,02,58,10.80
2010,04,02,02,59,15.20
2010,04,02,03,00,19.60
2010,04,02,03,01,15.10
2010,04,02,03,02,15.60
2010,04,02,03,03,11.20
2010,04,02,03,04,15.80
2010,04,02,03,05,14.80
2010,04,02,03,06,11.90
2010,04,02,03,07,11.20
2010,04,02,03,08,13.60
2010,04,02,03,09,20.70
2010,04,02,03,10,9.70
2010,04,02,03,11,7.40
2010,04,02,03,12,16.60
2010,04,02,03,13,9.80
2010,04,02,03,14,14.10
2010,04,02,03,15,9.70
2010,04,02,03,16,7.20
2010,04,02,03,17,15.70
2010,04,02,03,18,15.20
2010,04,02,03,19,13.60
2010,04,02,03,20,11.00
2010,04,02,03,21,13.30
2010,04,02,03,22,15.10
2010,04,02,03,23,10.80
2010,04,02,03,24,17.90
2010,04,02,03,25,14.00
2010,04,02,03,26,14.70
2010,04,02,03,27,11.50
2010,04,02,03,28,14.40
2010,04,02,03,29,16.50
2010,04,02,03,30,11.70
2010,04,02,03,31,14.00
2010,04,02,03,32,11.10
2010,04,02,03,33,11.90
2010,04,02,03,34,7.10
2010,04,02,03,35,8.00
2010,04,02,03,36,10.60
2010,04,02,03,37,8.60
2010,04,02,03,38,8.60
2010,04,02,03,39,12.70
2010,04,02,03,40,13.10
2010,04,02,03,41,5.40
2010,04,02,03,42,4.80
2010,04,02,03,43,11.30
2010,04,02,03,44,6.30
2010,04,02,03,45,5.30
2010,04,02,03,46,7.60
2010,04,02,03,47,3.60
2010,04,02,03,48,9.10
2010,04,02,03,49,7.70
2010,04,02,03,50,7.20
2010,04,02,03,51,9.00
2010,04,02,03,52,8.80
2010,04,02,03,53,9.70
2010,04,02,03,54,6.70
2010,04,02,03,55,4.60
2010,04,02,03,56,8.10
2010,04,02,03,57,1.90
2010,04,02,03,58,4.00
2010,04,02,03,59,3.30
2010,04,02,04,00,2.70
2010,04,02,04,01,2.00
2010,04,02,04,02,2.20
2010,04,02,04,03,4.10
2010,04,02,04,04,4.10
2010,04,02,04,05,2.90
2010,04,02,04,06,1.20
2010,04,02,04,07,3.70
2010,04,02,04,08,2.70
2010,04,02,04,09,1.30
2010,04,02,04,10,2.90
2010,04,02,04,11,0.20
2010,04,02,04,12,0.10
2010,04,02,04,13,0.60
2010,04,02,04,14,1.70
2010,04,02,04,15,2.60
2010,04,02,04,16,1.30
2010,04,02,04,17,0.70
2010,04,02,04,18,1.00
2010,04,02,04,19,0.60
2010,04,02,04,20,5.10
2010,04,02,04,21,2.50
2010,04,02,04,22,4.30
2010,04,02,04,23,6.40
2010,04,02,04,24,4.90
2010,04,02,04,25,7.20
2010,04,02,04,26,4.80
2010,04,02,04,27,10.50
2010,04,02,04,28,8.90
2010,04,02,04,29,13.50
2010,04,02,04,30,11.10
2010,04,02,04,31,14.50
2010,04,02,04,32,11.40
2010,04,02,04,33,11.70
2010,04,02,04,34,9.10
2010,04,02,04,35,11.00
2010,04,02,04,36,13.40
2010,04,02,04,37,14.70
2010,04,02,04,38,13.90
2010,04,02,04,39,8.90
2010,04,02,04,40,10.80
2010,04,02,04,41,14.60
2010,04,02,04,42,10.90
2010,04,02,04,43,13.40
2010,04,02,04,44,15.20
2010,04,02,04,45,15.90
2010,04,02,04,46,15.60
2010,04,02,04,47,10.80
2010,04,02,04,48,19.30
2010,04,02,04,49,24.50
2010,04,02,04,50,15.00
2010,04,02,04,51,13.40
2010,04,02,04,52,11.00
2010,04,02,04,53,17.10
2010,04,02,04,54,15.90
2010,04,02,04,55,14.50
2010,04,02,04,56,19.70
2010,04,02,04,57,15.20
2010,04,02,04,58,13.80
2010,04,02,04,59,16.20
2010,04,02,05,00,15.50
2010,04,02,05,01,16.90
2010,04,02,05,02,18.60
2010,04,02,05,03,12.50
2010,04,02,05,15,10.80
2010,04,02,05,22,12.30
2010,04,02,05,23,14.80
2010,04,02,05,24,11.80
2010,04,02,05,25,11.30
2010,04,02,05,26,11.90
2010,04,02,05,27,13.00
2010,04,02,05,28,19.70
2010,04,02,05,29,12.50
2010,04,02,05,30,19.60
2010,04,02,05,31,21.50
2010,04,02,05,32,8.30
2010,04,02,05,33,10.40
2010,04,02,05,34,11.40
2010,04,02,05,35,13.80
2010,04,02,05,36,12.10
2010,04,02,05,37,15.50
2010,04,02,05,38,17.40
2010,04,02,05,39,18.50
2010,04,02,05,40,19.00
2010,04,02,05,41,18.60
2010,04,02,05,42,20.70
2010,04,02,05,43,18.10
2010,04,02,05,44,16.80
2010,04,02,05,45,19.00
2010,04,02,05,46,11.00
2010,04,02,05,47,17.10
2010,04,02,05,48,17.00
2010,04,02,05,49,21.40
2010,04,02,05,50,20.50
2010,04,02,05,51,27.00
2010,04,02,05,52,19.00
2010,04,02,05,53,21.30
2010,04,02,05,54,18.50
2010,04,02,05,55,18.40
2010,04,02,05,56,22.30
2010,04,02,05,57,23.20
2010,04,02,05,58,16.60
2010,04,02,05,59,20.50
2010,04,02,06,00,23.60
2010,04,02,06,01,17.20
2010,04,02,06,02,17.40
2010,04,02,06,03,25.80
2010,04,02,06,04,24.80
2010,04,02,06,05,28.00
2010,04,02,06,06,19.80
2010,04,02,06,07,23.20
2010,04,02,06,08,25.30
2010,04,02,06,09,25.70
2010,04,02,06,10,24.00
2010,04,02,06,11,27.40
2010,04,02,06,12,21.80
2010,04,02,06,13,24.20
2010,04,02,06,14,24.40
2010,04,02,06,15,25.70
2010,04,02,06,16,26.40
2010,04,02,06,17,19.90
2010,04,02,06,18,23.40
2010,04,02,06,19,23.80
2010,04,02,06,20,24.30
2010,04,02,06,21,27.20
2010,04,02,06,22,26.50
2010,04,02,06,23,27.00
2010,04,02,06,24,30.70
2010,04,02,06,25,29.40
2010,04,02,06,26,30.20
2010,04,02,06,27,22.50
2010,04,02,06,28,24.90
2010,04,02,06,29,21.80
2010,04,02,06,30,22.90
2010,04,02,06,31,23.80
2010,04,02,06,32,31.10
2010,04,02,06,33,27.30
2010,04,02,06,34,19.90
2010,04,02,06,35,28.80
2010,04,02,06,36,24.70
2010,04,02,06,37,20.90
2010,04,02,06,38,15.90
2010,04,02,06,39,23.00
2010,04,02,06,40,21.90
2010,04,02,06,41,20.30
2010,04,02,06,42,15.80
2010,04,02,06,43,28.00
2010,04,02,06,44,27.30
2010,04,02,06,45,20.20
2010,04,02,06,46,28.50
2010,04,02,06,47,29.50
2010,04,02,06,48,25.30
2010,04,02,06,49,19.50
2010,04,02,06,50,28.50
2010,04,02,06,51,26.60
2010,04,02,06,52,22.30
2010,04,02,06,53,21.50
2010,04,02,06,54,25.50
2010,04,02,06,55,23.20
2010,04,02,06,56,30.80
2010,04,02,06,57,31.10
2010,04,02,06,58,26.10
2010,04,02,06,59,24.20
2010,04,02,07,00,28.70
2010,04,02,07,01,25.00
2010,04,02,07,02,24.80
2010,04,02,07,03,31.00
2010,04,02,07,04,31.10
2010,04,02,07,05,29.10
2010,04,02,07,06,28.50
2010,04,02,07,07,22.50
2010,04,02,07,08,21.40
2010,04,02,07,09,26.50
2010,04,02,07,10,30.50
2010,04,02,07,11,27.20
2010,04,02,07,12,22.50
2010,04,02,07,13,11.40
2010,04,02,07,14,26.00
2010,04,02,07,15,22.30
2010,04,02,07,16,25.20
2010,04,02,07,17,26.10
2010,04,02,07,18,35.60
2010,04,02,07,19,26.00
2010,04,02,07,20,29.30
2010,04,02,07,21,25.00
2010,04,02,07,22,22.70
2010,04,02,07,23,26.60
2010,04,02,07,24,21.40
2010,04,02,07,25,30.10
2010,04,02,07,26,25.90
2010,04,02,07,27,28.70
2010,04,02,07,28,20.30
2010,04,02,07,29,24.10
2010,04,02,07,30,21.00
2010,04,02,07,31,20.70
2010,04,02,07,32,20.80
2010,04,02,07,33,21.00
2010,04,02,07,34,29.10
2010,04,02,07,35,21.00
2010,04,02,07,36,25.50
2010,04,02,07,37,29.90
2010,04,02,07,38,23.90
2010,04,02,07,39,20.90
2010,04,02,07,40,17.60
2010,04,02,07,41,25.20
2010,04,02,07,42,24.10
2010,04,02,07,43,28.30
2010,04,02,07,44,22.40
2010,04,02,07,45,18.20
2010,04,02,07,46,17.50
2010,04,02,07,47,20.10
2010,04,02,07,48,16.70
2010,04,02,07,49,19.50
2010,04,02,07,50,15.30
2010,04,02,07,51,17.30
2010,04,02,07,52,21.50
2010,04,02,07,53,19.20
2010,04,02,07,54,16.10
2010,04,02,07,55,23.50
2010,04,02,07,56,19.50
2010,04,02,07,57,19.30
2010,04,02,07,58,13.40
2010,04,02,07,59,22.40
2010,04,02,08,00,20.50
2010,04,02,08,01,24.50
2010,04,02,08,02,21.00
2010,04,02,08,03,20.90
2010,04,02,08,04,21.10
2010,04,02,08,05,24.30
2010,04,02,08,06,18.30
2010,04,02,08,07,26.40
2010,04,02,08,08,30.80
2010,04,02,08,09,23.90
2010,04,02,08,10,22.50
2010,04,02,08,11,22.90
2010,04,02,08,12,15.60
2010,04,02,08,13,17.10
2010,04,02,08,14,22.20
2010,04,02,08,15,22.40
2010,04,02,08,16,18.20
2010,04,02,08,17,27.10
2010,04,02,08,18,17.90
2010,04,02,08,19,15.30
2010,04,02,08,20,26.90
2010,04,02,08,21,20.50
2010,04,02,08,22,24.40
2010,04,02,08,23,20.60
2010,04,02,08,24,29.10
2010,04,02,08,25,22.10
2010,04,02,08,26,22.10
2010,04,02,08,27,23.00
2010,04,02,08,28,22.50
2010,04,02,08,29,16.50
2010,04,02,08,30,20.10
2010,04,02,08,31,16.80
2010,04,02,08,32,25.40
2010,04,02,08,33,26.40
2010,04,02,08,34,19.90
2010,04,02,08,35,20.40
2010,04,02,08,36,20.50
2010,04,02,08,37,18.30
2010,04,02,08,38,23.00
2010,04,02,08,39,19.60
2010,04,02,08,40,22.60
2010,04,02,08,41,20.20
2010,04,02,08,42,23.30
2010,04,02,08,43,24.40
2010,04,02,08,44,27.90
2010,04,02,08,45,24.80
2010,04,02,08,46,18.10
2010,04,02,08,47,23.10
2010,04,02,08,48,24.60
2010,04,02,08,49,21.10
2010,04,02,08,50,20.40
2010,04,02,08,51,21.90
2010,04,02,08,52,27.10
2010,04,02,08,53,26.10
2010,04,02,08,54,24.20
2010,04,02,08,55,20.90
2010,04,02,08,56,24.50
2010,04,02,08,57,23.70
2010,04,02,08,58,20.40
2010,04,02,08,59,30.50
2010,04,02,09,00,22.00
2010,04,02,09,01,21.30
2010,04,02,09,02,21.20
2010,04,02,09,03,23.30
2010,04,02,09,04,14.20
2010,04,02,09,05,16.40
2010,04,02,09,06,25.00
2010,04,02,09,07,23.30
2010,04,02,09,08,22.20
2010,04,02,09,09,19.30
2010,04,02,09,10,22.60
2010,04,02,09,11,23.30
2010,04,02,09,12,21.90
2010,04,02,09,13,17.20
2010,04,02,09,14,17.40
2010,04,02,09,15,17.00
2010,04,02,09,16,18.90
2010,04,02,09,17,19.30
2010,04,02,09,18,21.70
2010,04,02,09,19,25.40
2010,04,02,09,20,17.00
2010,04,02,09,21,24.90
2010,04,02,09,22,17.90
2010,04,02,09,23,25.90
2010,04,02,09,24,17.50
2010,04,02,09,25,25.90
2010,04,02,09,26,13.60
2010,04,02,09,27,16.20
2010,04,02,09,28,25.00
2010,04,02,09,29,19.20
2010,04,02,09,30,16.00
2010,04,02,09,31,29.30
2010,04,02,09,32,25.40
2010,04,02,09,33,21.60
2010,04,02,09,34,24.10
2010,04,02,09,35,22.00
2010,04,02,09,36,19.50
2010,04,02,09,37,30.70
2010,04,02,09,38,27.50
2010,04,02,09,39,29.80
2010,04,02,09,40,22.60
2010,04,02,09,41,28.50
2010,04,02,09,42,24.00
2010,04,02,09,43,27.10
2010,04,02,09,44,22.50
2010,04,02,09,45,28.00
2010,04,02,09,46,18.70
2010,04,02,09,47,19.80
2010,04,02,09,48,21.50
2010,04,02,09,49,18.80
2010,04,02,09,50,21.70
2010,04,02,09,51,18.50
2010,04,02,09,52,27.90
2010,04,02,09,53,22.70
2010,04,02,09,54,27.00
2010,04,02,09,55,24.80
2010,04,02,09,56,24.60
2010,04,02,09,57,24.50
2010,04,02,09,58,24.10
2010,04,02,09,59,22.50
2010,04,02,10,00,15.20
2010,04,02,10,01,18.10
2010,04,02,10,02,16.90
2010,04,02,10,03,23.90
2010,04,02,10,04,20.60
2010,04,02,10,05,26.50
2010,04,02,10,06,27.60
2010,04,02,10,07,29.80
2010,04,02,10,08,27.60
2010,04,02,10,09,24.10
2010,04,02,10,10,29.30
2010,04,02,10,11,22.70
2010,04,02,10,12,21.60
2010,04,02,10,13,24.50
2010,04,02,10,14,30.10
2010,04,02,10,15,31.30
2010,04,02,10,16,23.40
2010,04,02,10,17,21.50
2010,04,02,10,18,30.80
2010,04,02,10,19,29.60
2010,04,02,10,20,20.00
2010,04,02,10,21,29.30
2010,04,02,10,22,22.20
2010,04,02,10,23,26.90
2010,04,02,10,24,29.50
2010,04,02,10,25,29.30
2010,04,02,10,26,23.80
2010,04,02,10,27,20.80
2010,04,02,10,28,27.30
2010,04,02,10,29,29.10
2010,04,02,10,30,25.10
2010,04,02,10,31,23.30
2010,04,02,10,32,27.20
2010,04,02,10,33,27.70
2010,04,02,10,34,20.10
2010,04,02,10,35,20.70
2010,04,02,10,36,19.00
2010,04,02,10,37,15.80
2010,04,02,10,38,19.00
2010,04,02,10,39,22.40
2010,04,02,10,40,21.80
2010,04,02,10,41,20.00
2010,04,02,10,42,21.50
2010,04,02,10,43,21.10
2010,04,02,10,44,19.50
2010,04,02,10,45,25.20
2010,04,02,10,46,23.80
2010,04,02,10,47,20.20
2010,04,02,10,48,21.00
2010,04,02,10,49,19.40
2010,04,02,10,50,24.60
2010,04,02,10,51,15.40
2010,04,02,10,52,22.00
2010,04,02,10,53,22.90
2010,04,02,10,54,26.10
2010,04,02,10,55,22.40
2010,04,02,10,56,23.10
2010,04,02,10,57,21.80
2010,04,02,10,58,30.40
2010,04,02,10,59,25.10
2010,04,02,11,00,28.60
2010,04,02,11,01,18.80
2010,04,02,11,02,27.60
2010,04,02,11,03,23.70
2010,04,02,11,04,28.90
2010,04,02,11,05,23.10
2010,04,02,11,06,29.40
2010,04,02,11,07,19.80
2010,04,02,11,08,25.20
2010,04,02,11,09,25.30
2010,04,02,11,10,24.10
2010,04,02,11,11,26.10
2010,04,02,11,12,26.30
2010,04,02,11,13,30.00
2010,04,02,11,14,22.30
2010,04,02,11,15,27.30
2010,04,02,11,16,30.80
2010,04,02,11,17,26.80
2010,04,02,11,18,24.10
2010,04,02,11,19,20.90
2010,04,02,11,20,24.00
2010,04,02,11,21,18.40
2010,04,02,11,22,16.90
2010,04,02,11,23,24.30
2010,04,02,11,24,28.60
2010,04,02,11,25,27.80
2010,04,02,11,26,26.30
2010,04,02,11,27,27.40
2010,04,02,11,28,18.80
2010,04,02,11,29,27.70
2010,04,02,11,30,28.50
2010,04,02,11,31,19.60
2010,04,02,11,32,23.00
2010,04,02,11,33,23.60
2010,04,02,11,34,26.90
2010,04,02,11,35,23.30
2010,04,02,11,36,22.60
2010,04,02,11,37,27.80
2010,04,02,11,38,20.60
2010,04,02,11,39,16.80
2010,04,02,11,40,22.30
2010,04,02,11,41,19.40
2010,04,02,11,42,22.00
2010,04,02,11,43,29.10
2010,04,02,11,44,21.00
2010,04,02,11,45,18.70
2010,04,02,11,46,26.60
2010,04,02,11,47,22.90
2010,04,02,11,48,21.50
2010,04,02,11,49,15.20
2010,04,02,11,50,20.80
2010,04,02,11,51,25.00
2010,04,02,11,52,19.60
2010,04,02,11,53,21.70
2010,04,02,11,54,30.90
2010,04,02,11,55,26.80
2010,04,02,11,56,20.50
2010,04,02,11,57,17.50
2010,04,02,11,58,23.60
2010,04,02,11,59,16.60
2010,04,02,12,00,19.70
2010,04,02,12,01,27.60
2010,04,02,12,02,29.40
2010,04,02,12,03,17.70
2010,04,02,12,04,20.90
2010,04,02,12,05,22.30
2010,04,02,12,06,22.10
2010,04,02,12,07,23.80
2010,04,02,12,08,21.00
2010,04,02,12,09,26.80
2010,04,02,12,10,23.40
2010,04,02,12,11,22.50
2010,04,02,12,12,18.20
2010,04,02,12,13,24.10
2010,04,02,12,14,22.10
2010,04,02,12,15,25.20
2010,04,02,12,16,23.20
2010,04,02,12,17,23.50
2010,04,02,12,18,30.30
2010,04,02,12,19,22.50
2010,04,02,12,20,19.90
2010,04,02,12,21,17.30
2010,04,02,12,22,19.80
2010,04,02,12,23,24.10
2010,04,02,12,24,17.20
2010,04,02,12,25,23.40
2010,04,02,12,26,20.10
2010,04,02,12,27,22.20
2010,04,02,12,28,31.00
2010,04,02,12,29,24.60
2010,04,02,12,30,22.10
2010,04,02,12,31,24.50
2010,04,02,12,32,23.80
2010,04,02,12,33,18.80
2010,04,02,12,34,15.30
2010,04,02,12,35,26.60
2010,04,02,12,36,22.30
2010,04,02,12,37,22.60
2010,04,02,12,38,22.20
2010,04,02,12,39,26.80
2010,04,02,12,40,18.20
2010,04,02,12,41,24.90
2010,04,02,12,42,21.70
2010,04,02,12,43,19.80
2010,04,02,12,44,18.30
2010,04,02,12,45,16.50
2010,04,02,12,46,21.30
2010,04,02,12,47,19.90
2010,04,02,12,48,25.90
2010,04,02,12,49,12.60
2010,04,02,12,50,18.40
2010,04,02,12,51,22.90
2010,04,02,12,52,19.30
2010,04,02,12,53,20.20
2010,04,02,12,54,9.90
2010,04,02,12,55,22.20
2010,04,02,12,56,16.40
2010,04,02,12,57,21.70
2010,04,02,12,58,18.30
2010,04,02,12,59,14.90
2010,04,02,13,00,19.60
2010,04,02,13,01,17.40
2010,04,02,13,02,21.80
2010,04,02,13,03,19.10
2010,04,02,13,04,18.10
2010,04,02,13,05,19.80
2010,04,02,13,06,18.90
2010,04,02,13,07,16.70
2010,04,02,13,08,18.10
2010,04,02,13,09,21.60
2010,04,02,13,10,23.30
2010,04,02,13,11,21.50
2010,04,02,13,12,23.00
2010,04,02,13,13,17.40
2010,04,02,13,14,15.50
2010,04,02,13,15,22.20
2010,04,02,13,16,19.80
2010,04,02,13,17,13.80
2010,04,02,13,18,19.60
2010,04,02,13,19,19.70
2010,04,02,13,20,18.70
2010,04,02,13,21,25.60
2010,04,02,13,22,17.00
2010,04,02,13,23,25.30
2010,04,02,13,24,19.10
2010,04,02,13,25,19.20
2010,04,02,13,26,20.50
2010,04,02,13,27,17.60
2010,04,02,13,28,18.10
2010,04,02,13,29,24.30
2010,04,02,13,30,25.90
2010,04,02,13,31,20.90
2010,04,02,13,32,20.70
2010,04,02,13,33,22.70
2010,04,02,13,34,21.10
2010,04,02,13,35,18.40
2010,04,02,13,36,23.10
2010,04,02,13,37,18.60
2010,04,02,13,38,20.20
2010,04,02,13,39,21.70
2010,04,02,13,40,17.50
2010,04,02,13,41,12.50
2010,04,02,13,42,23.30
2010,04,02,13,43,21.90
2010,04,02,13,44,24.30
2010,04,02,13,45,25.10
2010,04,02,13,46,25.00
2010,04,02,13,47,17.80
2010,04,02,13,48,21.50
2010,04,02,13,49,20.20
2010,04,02,13,50,22.60
2010,04,02,13,51,15.50
2010,04,02,13,52,17.60
2010,04,02,13,53,17.10
2010,04,02,13,54,16.10
2010,04,02,13,55,10.50
2010,04,02,13,56,20.00
2010,04,02,13,57,19.50
2010,04,02,13,58,15.60
2010,04,02,13,59,20.80
2010,04,02,14,00,21.20
2010,04,02,14,01,11.40
2010,04,02,14,02,10.10
2010,04,02,14,03,14.00
2010,04,02,14,04,19.00
2010,04,02,14,05,11.20
2010,04,02,14,06,18.30
2010,04,02,14,07,24.10
2010,04,02,14,08,17.10
2010,04,02,14,09,18.00
2010,04,02,14,10,17.30
2010,04,02,14,11,18.50
2010,04,02,14,12,13.30
2010,04,02,14,13,18.50
2010,04,02,14,14,21.10
2010,04,02,14,15,16.40
2010,04,02,14,16,18.50
2010,04,02,14,17,17.30
2010,04,02,14,18,19.90
2010,04,02,14,19,12.30
2010,04,02,14,20,13.20
2010,04,02,14,21,14.80
2010,04,02,14,22,17.00
2010,04,02,14,23,17.00
2010,04,02,14,24,19.60
2010,04,02,14,25,23.50
2010,04,02,14,26,16.30
2010,04,02,14,27,19.00
2010,04,02,14,28,13.70
2010,04,02,14,29,15.30
2010,04,02,14,30,18.80
2010,04,02,14,31,17.10
2010,04,02,14,32,20.70
2010,04,02,14,33,20.30
2010,04,02,14,34,15.60
2010,04,02,14,35,17.30
2010,04,02,14,36,15.40
2010,04,02,14,37,17.90
2010,04,02,14,38,17.50
2010,04,02,14,39,22.20
2010,04,02,14,40,16.60
2010,04,02,14,41,14.00
2010,04,02,14,42,16.50
2010,04,02,14,43,13.00
2010,04,02,14,44,18.10
2010,04,02,14,45,19.60
2010,04,02,14,46,13.10
2010,04,02,14,47,18.10
2010,04,02,14,48,13.10
2010,04,02,14,49,12.20
2010,04,02,14,50,15.60
2010,04,02,14,51,14.00
2010,04,02,14,52,10.90
2010,04,02,14,53,15.60
2010,04,02,14,54,11.00
2010,04,02,14,55,14.40
2010,04,02,14,56,9.70
2010,04,02,14,57,10.20
2010,04,02,14,58,13.60
2010,04,02,14,59,9.50
2010,04,02,15,00,8.10
2010,04,02,15,01,12.70
2010,04,02,15,02,18.40
2010,04,02,15,03,13.90
2010,04,02,15,04,12.70
2010,04,02,15,05,16.40
2010,04,02,15,06,13.10
2010,04,02,15,07,18.20
2010,04,02,15,08,11.70
2010,04,02,15,09,10.80
2010,04,02,15,10,16.30
2010,04,02,15,11,14.20
2010,04,02,15,12,21.50
2010,04,02,15,13,15.90
2010,04,02,15,14,11.00
2010,04,02,15,15,15.90
2010,04,02,15,16,8.40
2010,04,02,15,17,7.60
2010,04,02,15,18,9.50
2010,04,02,15,19,16.30
2010,04,02,15,20,17.10
2010,04,02,15,21,11.90
2010,04,02,15,22,17.00
2010,04,02,15,23,11.20
2010,04,02,15,24,6.90
2010,04,02,15,25,10.10
2010,04,02,15,26,15.50
2010,04,02,15,27,15.60
2010,04,02,15,28,16.50
2010,04,02,15,29,11.80
2010,04,02,15,30,10.30
2010,04,02,15,31,8.00
2010,04,02,15,32,9.80
2010,04,02,15,33,6.40
2010,04,02,15,34,8.00
2010,04,02,15,35,13.40
2010,04,02,15,36,12.50
2010,04,02,15,37,16.30
2010,04,02,15,38,8.90
2010,04,02,15,39,7.20
2010,04,02,15,40,6.50
2010,04,02,15,41,11.70
2010,04,02,15,42,9.50
2010,04,02,15,43,6.60
2010,04,02,15,44,7.40
2010,04,02,15,45,3.80
2010,04,02,15,46,5.30
2010,04,02,15,47,15.70
2010,04,02,15,48,6.40
2010,04,02,15,49,6.60
2010,04,02,15,50,7.00
2010,04,02,15,51,18.60
2010,04,02,15,52,18.30
2010,04,02,15,53,17.10
2010,04,02,15,54,18.50
2010,04,02,15,55,12.30
2010,04,02,15,56,10.30
2010,04,02,15,57,11.50
2010,04,02,15,58,11.70
2010,04,02,15,59,14.50
2010,04,02,16,00,9.20
2010,04,02,16,01,11.40
2010,04,02,16,02,5.80
2010,04,02,16,03,9.90
2010,04,02,16,04,10.00
2010,04,02,16,05,10.50
2010,04,02,16,06,8.90
2010,04,02,16,07,7.30
2010,04,02,16,08,8.20
2010,04,02,16,09,13.20
2010,04,02,16,10,12.40
2010,04,02,16,11,8.80
2010,04,02,16,12,6.70
2010,04,02,16,13,9.70
2010,04,02,16,14,5.80
2010,04,02,16,15,5.90
2010,04,02,16,16,8.90
2010,04,02,16,17,5.60
2010,04,02,16,18,7.50
2010,04,02,16,19,11.20
2010,04,02,16,20,9.70
2010,04,02,16,21,8.00
2010,04,02,16,22,6.80
2010,04,02,16,23,5.00
2010,04,02,16,24,8.50
2010,04,02,16,25,10.50
2010,04,02,16,26,11.00
2010,04,02,16,27,8.60
2010,04,02,16,28,10.60
2010,04,02,16,29,10.00
2010,04,02,16,30,9.70
2010,04,02,16,31,8.10
2010,04,02,16,32,9.90
2010,04,02,16,33,10.40
2010,04,02,16,34,9.60
2010,04,02,16,35,9.40
2010,04,02,16,36,11.90
2010,04,02,16,37,11.40
2010,04,02,16,38,12.60
2010,04,02,16,39,13.10
2010,04,02,16,40,12.30
2010,04,02,16,41,14.30
2010,04,02,16,42,5.80
2010,04,02,16,43,14.30
2010,04,02,16,44,10.60
2010,04,02,16,45,8.30
2010,04,02,16,46,10.30
2010,04,02,16,47,9.00
2010,04,02,16,48,7.20
2010,04,02,16,49,11.00
2010,04,02,16,50,7.60
2010,04,02,16,51,6.00
2010,04,02,16,52,8.70
2010,04,02,16,53,9.70
2010,04,02,16,54,11.40
2010,04,02,16,55,14.40
2010,04,02,16,56,9.50
2010,04,02,16,57,8.40
2010,04,02,16,58,7.10
2010,04,02,16,59,8.90
2010,04,02,17,00,9.30
2010,04,02,17,01,11.50
2010,04,02,17,02,12.50
2010,04,02,17,03,13.00
2010,04,02,17,04,12.60
2010,04,02,17,05,8.90
2010,04,02,17,06,8.50
2010,04,02,17,07,12.00
2010,04,02,17,08,12.60
2010,04,02,17,09,9.20
2010,04,02,17,10,14.00
2010,04,02,17,11,10.70
2010,04,02,17,12,14.60
2010,04,02,17,13,10.70
2010,04,02,17,14,11.60
2010,04,02,17,15,13.40
2010,04,02,17,16,12.30
2010,04,02,17,17,15.20
2010,04,02,17,18,14.00
2010,04,02,17,19,15.60
2010,04,02,17,20,13.40
2010,04,02,17,21,17.40
2010,04,02,17,22,18.00
2010,04,02,17,23,17.30
2010,04,02,17,24,15.10
2010,04,02,17,25,17.70
2010,04,02,17,26,17.50
2010,04,02,17,27,19.90
2010,04,02,17,28,14.90
2010,04,02,17,29,15.90
2010,04,02,17,30,12.60
2010,04,02,17,31,10.20
2010,04,02,17,32,11.00
2010,04,02,17,33,6.80
2010,04,02,17,34,5.70
2010,04,02,17,35,7.10
2010,04,02,17,36,13.80
2010,04,02,17,37,10.00
2010,04,02,17,38,16.10
2010,04,02,17,39,13.60
2010,04,02,17,40,13.00
2010,04,02,17,41,17.70
2010,04,02,17,42,12.70
2010,04,02,17,43,15.60